Current Weather Conditions: station 63103

sailwx.info

Wind from 200 at 29 knots

Wave height 4.0 meters (13 feet), 7 second period

Air temperature 12.9° C
Dewpoint 12.7° C

Last reported at 2014-Oct-01 08:00 UTC.
Time now 2014-Oct-01 10:29 UTC

Location: N 61°12' E 001°06'.
View on Google Maps.

See reports from other nearby stations

  
Tides and Currents Weather Stations Pressure Air Temp Water Temp Dewpoint Dewpoint Depression Visibility Wind Speed Wind Dir Waves Ship Positions
date/time (UTC)wind fromknots sea level pressurealtimeterstation pressurevisibilityair tempwater tempwave heightnotes
2014-Oct-01 08:00 200 29 12.9 4.0
2014-Oct-01 07:00 180 38 12.9 4.3
2014-Oct-01 06:00 180 38 13.3 4.1
2014-Oct-01 05:00 170 38 13.6 4.2
2014-Oct-01 04:00 180 38 13.6 3.8
2014-Oct-01 03:00 180 37 13.6 3.9
2014-Oct-01 02:00 180 38 13.6 3.8
2014-Oct-01 01:00 180 37 13.5 3.9
2014-Oct-01 00:00 180 38 13.7 3.4
2014-Sep-30 23:00 180 35 13.6 3.3
2014-Sep-30 22:00 180 36 13.6 3.3
2014-Sep-30 21:00 180 34 13.6 2.7
2014-Sep-30 20:00 180 32 13.6 2.8
2014-Sep-30 19:00 180 31 13.5 2.2
2014-Sep-30 18:00 180 31 13.2 2.4
2014-Sep-30 17:00 180 29 12.9 2.1
2014-Sep-30 16:00 190 29 12.9 2.0
2014-Sep-30 15:00 180 29 13.2 1.8
2014-Sep-30 14:00 180 29 13.6 1.8
2014-Sep-30 13:00 180 31 13.2 1.6
2014-Sep-30 12:00 180 27 13.4 1.6
2014-Sep-30 11:00 180 25 13.2 1.5
2014-Sep-30 10:00 190 26 13.1 1.4
2014-Sep-30 09:00 180 22 13.0 1.5
2014-Sep-30 08:00 170 20 13.0 1.4
2014-Sep-30 07:00 180 20 12.8 1.5
2014-Sep-30 06:00 180 18 12.9 1.6
2014-Sep-30 05:00 190 15 12.4 1.7
2014-Sep-30 04:00 180 17 12.3 1.7
2014-Sep-30 03:00 200 17 11.7 1.8
2014-Sep-30 02:00 200 17 12.2 1.8
2014-Sep-30 01:00 190 17 12.5 1.8
2014-Sep-30 00:00 200 16 12.6 2.0
2014-Sep-29 23:00 200 16 12.8 2.2
2014-Sep-29 22:00 170 22 12.7 2.0
2014-Sep-29 21:00 150 23 12.3 2.0
2014-Sep-29 20:00 140 20 11.7 2.1
2014-Sep-29 19:00 150 22 12.0 2.1
2014-Sep-29 18:00 150 18 12.6 2.0
2014-Sep-29 17:00 140 17 12.7 2.2
2014-Sep-29 16:00 120 16 12.3 2.3
2014-Sep-29 15:00 130 12 12.2 2.4
2014-Sep-29 14:00 140 10 12.0 2.3
2014-Sep-29 13:00 150 10 12.0 2.2
2014-Sep-29 12:00 160 7 11.9 2.2
2014-Sep-29 11:00 170 6 12.1 2.4